| time (UTC) | temp C | wind direction | speed KPH | gust KPH | rain 1hr cm | rain 24hr cm | rain mn cm | humidity % | barometer mb |
| 20260506175110 | 11 | 0 | 0.0 | 0.0 | 0.00 | 0.46 | 0.30 | 81 | 1015.7 |
| 20260506174107 | 11 | 0 | 0.0 | 0.0 | 0.00 | 0.46 | 0.30 | 80 | 1015.4 |
| 20260506173106 | 12 | 0 | 0.0 | 0.0 | 0.00 | 0.46 | 0.30 | 79 | 1015.3 |
| 20260506171108 | 12 | 0 | 0.0 | 0.0 | 0.00 | 0.46 | 0.30 | 79 | 1015.2 |
| 20260506163105 | 11 | 0 | 0.0 | 0.0 | 0.00 | 0.46 | 0.30 | 79 | 1015.2 |
| 20260506162108 | 11 | 0 | 0.0 | 0.0 | 0.00 | 0.46 | 0.30 | 79 | 1015.1 |
| 20260506161105 | 11 | 0 | 0.0 | 0.0 | 0.00 | 0.46 | 0.30 | 79 | 1015.2 |
| 20260506155104 | 12 | 0 | 0.0 | 0.0 | 0.00 | 0.46 | 0.30 | 78 | 1015.1 |
| 20260506154110 | 12 | 0 | 0.0 | 0.0 | 0.00 | 0.46 | 0.30 | 79 | 1015.1 |
| 20260506153104 | 12 | 0 | 0.0 | 0.0 | 0.00 | 0.46 | 0.30 | 80 | 1015.1 |
| 20260506152102 | 12 | 0 | 0.0 | 0.0 | 0.00 | 0.46 | 0.30 | 79 | 1015.0 |
| 20260506151105 | 13 | 0 | 0.0 | 0.0 | 0.00 | 0.46 | 0.30 | 78 | 1015.0 |
| 20260506150104 | 13 | 0 | 0.0 | 0.0 | 0.00 | 0.46 | 0.30 | 77 | 1014.9 |
| 20260506145104 | 13 | 0 | 0.0 | 0.0 | 0.00 | 0.46 | 0.30 | 76 | 1014.9 |
| 20260506144101 | 13 | 0 | 0.0 | 0.0 | 0.00 | 0.46 | 0.30 | 75 | 1014.7 |
| 20260506142103 | 13 | 0 | 0.0 | 0.0 | 0.00 | 0.46 | 0.30 | 79 | 1014.7 |
| 20260506140110 | 13 | 0 | 0.0 | 0.0 | 0.00 | 0.46 | 0.30 | 77 | 1014.8 |
| 20260506135103 | 13 | 0 | 0.0 | 0.0 | 0.00 | 0.46 | 0.30 | 79 | 1014.9 |
| 20260506133103 | 13 | 0 | 0.0 | 0.0 | 0.00 | 0.46 | 0.30 | 77 | 1014.8 |
| 20260506132102 | 13 | 0 | 0.0 | 0.0 | 0.00 | 0.46 | 0.30 | 78 | 1014.9 |
| 20260506131103 | 13 | 0 | 0.0 | 0.0 | 0.00 | 0.46 | 0.30 | 80 | 1014.8 |
| 20260506125101 | 12 | 0 | 0.0 | 0.0 | 0.00 | 0.46 | 0.30 | 79 | 1014.7 |
| 20260506124100 | 12 | 0 | 0.0 | 0.0 | 0.00 | 0.46 | 0.30 | 85 | 1014.7 |
| 20260506123104 | 12 | 0 | 0.0 | 0.0 | 0.00 | 0.46 | 0.30 | 86 | 1014.7 |
| 20260506115059 | 11 | 0 | 0.0 | 0.0 | 0.00 | 0.46 | 0.30 | 88 | 1014.7 |
| 20260506114100 | 11 | 0 | 0.0 | 0.0 | 0.00 | 0.46 | 0.30 | 88 | 1014.7 |
| 20260506112100 | 11 | 0 | 0.0 | 0.0 | 0.00 | 0.46 | 0.30 | 90 | 1014.7 |
| 20260506111102 | 11 | 0 | 0.0 | 0.0 | 0.00 | 0.46 | 0.30 | 91 | 1014.8 |
| 20260506110101 | 11 | 0 | 0.0 | 0.0 | 0.00 | 0.46 | 0.30 | 93 | 1014.8 |
| 20260506104100 | 10 | 0 | 0.0 | 0.0 | 0.00 | 0.46 | 0.30 | 96 | 1014.8 |
| 20260506103102 | 10 | 0 | 0.0 | 0.0 | 0.00 | 0.46 | 0.30 | 96 | 1014.8 |
| 20260506102103 | 10 | 0 | 0.0 | 0.0 | 0.00 | 0.46 | 0.30 | 97 | 1014.8 |
| 20260506101100 | 9 | 0 | 0.0 | 0.0 | 0.00 | 0.46 | 0.30 | 98 | 1014.8 |
| 20260506100057 | 9 | 0 | 0.0 | 0.0 | 0.00 | 0.46 | 0.30 | 99 | 1014.7 |
| 20260506095101 | 9 | 0 | 0.0 | 0.0 | 0.00 | 0.46 | 0.30 | 10 | 1014.7 |
| 20260506094100 | 8 | 0 | 0.0 | 0.0 | 0.00 | 0.46 | 0.30 | 10 | 1014.6 |
| 20260506093100 | 8 | 0 | 0.0 | 0.0 | 0.00 | 0.46 | 0.30 | 10 | 1014.5 |
| 20260506092059 | 8 | 0 | 0.0 | 0.0 | 0.00 | 0.46 | 0.30 | 10 | 1014.4 |
| 20260506085101 | 8 | 0 | 0.0 | 0.0 | 0.00 | 0.46 | 0.30 | 10 | 1014.3 |
| 20260506084059 | 8 | 0 | 0.0 | 0.0 | 0.00 | 0.46 | 0.30 | 10 | 1014.2 |
| 20260506083056 | 8 | 0 | 0.0 | 0.0 | 0.00 | 0.46 | 0.30 | 10 | 1014.1 |
| 20260506082100 | 8 | 0 | 0.0 | 0.0 | 0.00 | 0.46 | 0.30 | 10 | 1014.0 |
| 20260506081057 | 8 | 0 | 0.0 | 0.0 | 0.00 | 0.46 | 0.30 | 10 | 1014.0 |
| 20260506073058 | 8 | 0 | 0.0 | 0.0 | 0.00 | 0.46 | 0.30 | 98 | 1013.7 |
| 20260506072048 | 8 | 0 | 0.0 | 0.0 | 0.00 | 0.46 | 0.30 | 97 | 1013.7 |
| 20260506071059 | 8 | 0 | 0.0 | 0.0 | 0.00 | 0.46 | 0.30 | 95 | 1013.6 |
| 20260506062025 | 8 | 0 | 0.0 | 0.0 | 0.00 | 0.46 | 0.30 | 95 | 1013.4 |
| 20260506061054 | 7 | 0 | 0.0 | 0.0 | 0.00 | 0.46 | 0.30 | 96 | 1013.4 |
| 20260506051030 | 7 | 0 | 0.0 | 0.0 | 0.03 | 0.46 | 0.30 | 96 | 1013.4 |
| 20260506045033 | 7 | 0 | 0.0 | 0.0 | 0.03 | 0.46 | 0.30 | 96 | 1013.3 |
| 20260506044055 | 7 | 0 | 0.0 | 0.0 | 0.03 | 0.46 | 0.30 | 96 | 1013.2 |
| 20260506043057 | 7 | 0 | 0.0 | 0.0 | 0.05 | 0.46 | 0.30 | 96 | 1013.2 |
| 20260506042025 | 7 | 0 | 0.0 | 0.0 | 0.05 | 0.46 | 0.30 | 96 | 1013.2 |
| 20260506041054 | 7 | 0 | 0.0 | 0.0 | 0.05 | 0.46 | 0.30 | 97 | 1013.2 |
| 20260506035059 | 7 | 0 | 0.0 | 0.0 | 0.05 | 0.43 | 0.28 | 96 | 1013.3 |
| 20260506034058 | 7 | 0 | 0.0 | 0.0 | 0.05 | 0.43 | 0.28 | 96 | 1013.3 |
| 20260506033034 | 7 | 0 | 0.0 | 0.0 | 0.05 | 0.43 | 0.28 | 96 | 1013.3 |
| 20260506032047 | 7 | 0 | 0.0 | 0.0 | 0.03 | 0.43 | 0.25 | 96 | 1013.4 |
| 20260506031054 | 7 | 0 | 0.0 | 0.0 | 0.03 | 0.43 | 0.25 | 96 | 1013.4 |
| 20260506030026 | 8 | 0 | 0.0 | 0.0 | 0.03 | 0.43 | 0.25 | 96 | 1013.5 |
| 20260506025055 | 8 | 0 | 0.0 | 0.0 | 0.00 | 0.41 | 0.23 | 96 | 1013.5 |
| 20260506023057 | 8 | 0 | 0.0 | 0.0 | 0.00 | 0.41 | 0.23 | 96 | 1013.5 |
| 20260506022048 | 8 | 0 | 0.0 | 0.0 | 0.00 | 0.41 | 0.23 | 97 | 1013.5 |
| 20260506021056 | 8 | 0 | 0.0 | 0.0 | 0.00 | 0.41 | 0.23 | 97 | 1013.5 |
| 20260506020058 | 8 | 0 | 0.0 | 0.0 | 0.00 | 0.41 | 0.23 | 97 | 1013.5 |
| 20260506015030 | 8 | 0 | 0.0 | 0.0 | 0.00 | 0.41 | 0.23 | 98 | 1013.5 |
| 20260506014023 | 8 | 0 | 0.0 | 0.0 | 0.03 | 0.41 | 0.23 | 98 | 1013.5 |
| 20260506011034 | 8 | 0 | 0.0 | 0.0 | 0.05 | 0.41 | 0.23 | 99 | 1013.6 |
| 20260506010116 | 8 | 0 | 0.0 | 0.0 | 0.05 | 0.41 | 0.23 | 99 | 1013.6 |
| 20260506005042 | 8 | 0 | 0.0 | 0.0 | 0.08 | 0.41 | 0.23 | 99 | 1013.7 |
| 20260506004051 | 8 | 0 | 0.0 | 0.0 | 0.08 | 0.41 | 0.23 | 99 | 1013.8 |
| 20260506003028 | 8 | 0 | 0.0 | 0.0 | 0.08 | 0.38 | 0.23 | 99 | 1013.8 |
| 20260506002059 | 8 | 0 | 0.0 | 0.0 | 0.10 | 0.38 | 0.23 | 99 | 1013.9 |
| 20260506000100 | 8 | 0 | 0.0 | 0.0 | 0.13 | 0.36 | 0.20 | 99 | 1014.0 |
| 20260505235105 | 8 | 0 | 0.0 | 0.0 | 0.10 | 0.33 | 0.18 | 98 | 1014.0 |
| 20260505234103 | 8 | 0 | 0.0 | 0.0 | 0.10 | 0.33 | 0.15 | 98 | 1014.1 |
| 20260505233103 | 8 | 0 | 0.0 | 0.0 | 0.13 | 0.33 | 0.15 | 98 | 1014.1 |
| 20260505232108 | 8 | 0 | 0.0 | 0.0 | 0.13 | 0.30 | 0.15 | 98 | 1014.1 |
| 20260505231106 | 9 | 0 | 0.0 | 0.0 | 0.10 | 0.30 | 0.13 | 98 | 1014.1 |
| 20260505230107 | 9 | 0 | 0.0 | 0.0 | 0.10 | 0.28 | 0.10 | 99 | 1014.2 |
| 20260505225107 | 9 | 0 | 0.0 | 0.0 | 0.10 | 0.25 | 0.08 | 99 | 1014.3 |
| 20260505223105 | 9 | 0 | 0.0 | 0.0 | 0.13 | 0.23 | 0.05 | 10 | 1014.3 |
| 20260505221109 | 10 | 0 | 0.0 | 0.0 | 0.10 | 0.20 | 0.03 | 10 | 1014.3 |
| 20260505215114 | 10 | 0 | 0.0 | 0.0 | 0.10 | 0.18 | 0.18 | 10 | 1014.4 |
| 20260505214114 | 10 | 0 | 0.0 | 0.0 | 0.08 | 0.15 | 0.15 | 10 | 1014.5 |
| 20260505213112 | 10 | 0 | 0.0 | 0.0 | 0.05 | 0.15 | 0.15 | 10 | 1014.4 |
| 20260505212111 | 10 | 0 | 0.0 | 0.0 | 0.05 | 0.13 | 0.13 | 10 | 1014.4 |
| 20260505211110 | 10 | 0 | 0.0 | 0.0 | 0.05 | 0.13 | 0.13 | 10 | 1014.5 |
| 20260505203117 | 10 | 0 | 0.0 | 0.0 | 0.05 | 0.10 | 0.08 | 99 | 1014.5 |
| 20260505202111 | 10 | 0 | 0.0 | 0.0 | 0.05 | 0.10 | 0.08 | 99 | 1014.4 |
| 20260505195107 | 10 | 0 | 0.0 | 0.0 | 0.05 | 0.08 | 0.05 | 99 | 1014.3 |
| 20260505193116 | 10 | 0 | 0.0 | 0.0 | 0.03 | 0.05 | 0.05 | 99 | 1014.2 |
| 20260505192110 | 10 | 0 | 0.0 | 0.0 | 0.03 | 0.05 | 0.05 | 99 | 1014.1 |
| 20260505191109 | 10 | 0 | 0.0 | 0.0 | 0.03 | 0.18 | 0.05 | 99 | 1014.1 |
| 20260505190108 | 10 | 0 | 0.0 | 0.0 | 0.03 | 0.64 | 0.05 | 99 | 1014.0 |
| 20260505185111 | 10 | 0 | 0.0 | 0.0 | 0.00 | 0.97 | 0.03 | 99 | 1014.0 |
| 20260505183102 | 10 | 0 | 0.0 | 0.0 | 0.00 | 1.02 | 0.03 | 98 | 1014.0 |
| 20260505182105 | 10 | 0 | 0.0 | 0.0 | 0.00 | 1.02 | 0.03 | 98 | 1014.1 |
| 20260505181106 | 10 | 0 | 0.0 | 0.0 | 0.00 | 1.02 | 0.03 | 98 | 1014.0 |
| 20260505180111 | 11 | 0 | 0.0 | 0.0 | 0.00 | 1.02 | 0.03 | 97 | 1014.0 |